Date String (YYYY-MM-DD hh:mm:ss) UTC,Instrument flags,Ambient pressure (hPa),Sample flow (lpm),Bypass flow (lpm),Sample temperature (°C),Ambient temperature (°C),ASC tube jacket temperature (°C),LED temperature (°C),Box temperature (°C),Sample RH (%),Span deviation,Mass concentration (μg/m³),Mass concentration (μg/m³),Mass concentration (μg/m³)
DateTimeUTC,F1_M11,P_M11,Q1_M11,Q2_M11,T1_M11,T2_M11,T3_M11,T4_M11,T5_M11,U1_M11,ZSPAN_M11,X0_M11,X2_M11,X1_M11
2022-09-11 01:00:00,,0834.7,4.98,0.00,28.0,26.4,00.0,36.8,29.9,28.4,0000.0,0003.41,0002.75,0002.48
2022-09-11 01:01:00,,0834.7,5.00,0.00,28.0,26.3,00.0,36.8,29.8,28.5,0000.0,0003.58,0002.82,0002.51
2022-09-11 01:02:00,,0834.7,5.00,0.00,28.0,26.3,00.0,36.8,29.8,28.5,0000.0,0003.70,0002.88,0002.53
2022-09-11 01:03:00,,0834.8,5.00,0.00,28.0,26.3,00.0,36.8,29.8,28.6,0000.0,0003.76,0002.91,0002.55
2022-09-11 01:04:00,,0834.8,5.00,0.00,28.0,26.4,00.0,36.8,29.8,28.5,0000.0,0003.73,0002.92,0002.57
2022-09-11 01:05:00,,0834.8,5.00,0.00,28.0,26.4,00.0,36.8,29.8,28.5,0000.0,0003.74,0002.94,0002.59
2022-09-11 01:06:00,,0834.8,5.00,0.00,28.0,26.4,00.0,36.8,29.8,28.6,0000.0,0003.81,0002.97,0002.61
2022-09-11 01:07:00,,0834.8,5.00,0.00,28.0,26.4,00.0,36.8,29.8,28.5,0000.0,0003.95,0003.01,0002.61
2022-09-11 01:08:00,,0834.8,5.00,0.00,28.0,26.4,00.0,36.7,29.8,28.6,0000.0,0003.97,0003.02,0002.62
2022-09-11 01:09:00,,0834.8,5.00,0.00,28.0,26.3,00.0,36.7,29.8,28.6,0000.0,0003.95,0003.02,0002.63
2022-09-11 01:10:00,,0834.7,5.00,0.00,28.0,26.3,00.0,36.7,29.8,28.5,0000.0,0003.86,0002.98,0002.61
2022-09-11 01:11:00,,0834.7,4.99,0.00,28.0,26.3,00.0,36.7,29.8,28.5,0000.0,0003.76,0002.90,0002.59
2022-09-11 01:12:00,,0834.7,4.99,0.00,28.0,26.2,00.0,36.7,29.8,28.5,0000.0,0003.84,0002.84,0002.57
2022-09-11 01:13:00,,0834.7,5.00,0.00,27.9,26.1,00.0,36.7,29.8,28.5,0000.0,0003.74,0002.78,0002.56
2022-09-11 01:14:00,,0834.7,5.01,0.00,27.9,26.2,00.0,36.7,29.8,28.6,0000.0,0003.67,0002.76,0002.55
2022-09-11 01:15:00,,0834.7,5.00,0.00,27.9,26.1,00.0,36.7,29.7,28.6,0000.0,0003.76,0002.76,0002.54
2022-09-11 01:16:00,,0834.8,5.00,0.00,27.9,26.1,00.0,36.7,29.7,28.6,0000.0,0003.72,0002.71,0002.51
2022-09-11 01:17:00,,0834.8,5.01,0.00,27.9,26.1,00.0,36.7,29.7,28.6,0000.0,0003.67,0002.67,0002.46
2022-09-11 01:18:00,,0834.8,5.00,0.00,27.9,26.1,00.0,36.7,29.7,28.5,0000.0,0003.54,0002.62,0002.40
2022-09-11 01:19:00,,0834.8,5.00,0.00,27.9,26.1,00.0,36.7,29.7,28.5,0000.0,0003.53,0002.57,0002.34
2022-09-11 01:20:00,,0834.8,5.01,0.00,27.9,26.1,00.0,36.7,29.7,28.6,0000.0,0003.51,0002.51,0002.27
2022-09-11 01:21:00,,0834.8,5.01,0.00,27.9,26.2,00.0,36.7,29.7,28.6,0000.0,0003.52,0002.49,0002.24
2022-09-11 01:22:00,,0834.8,5.00,0.00,27.9,26.1,00.0,36.7,29.7,28.5,0000.0,0003.46,0002.47,0002.19
2022-09-11 01:23:00,,0834.8,5.00,0.00,27.9,26.1,00.0,36.7,29.7,28.5,0000.0,0003.17,0002.39,0002.11
2022-09-11 01:24:00,,0834.8,5.01,0.00,27.8,26.0,00.0,36.6,29.7,28.5,0000.0,0003.01,0002.31,0002.03
2022-09-11 01:25:00,,0834.8,5.01,0.00,27.9,26.1,00.0,36.6,29.7,29.2,0000.0,0002.93,0002.22,0001.94
2022-09-11 01:26:00,,0834.8,4.99,0.00,27.8,26.1,00.0,36.6,29.7,29.2,0000.0,0002.76,0002.14,0001.86
2022-09-11 01:27:00,,0834.8,5.00,0.00,27.8,26.1,00.0,36.6,29.7,28.8,0000.0,0002.74,0002.09,0001.80
2022-09-11 01:28:00,,0834.8,5.00,0.00,27.8,26.1,00.0,36.6,29.7,28.7,0000.0,0002.74,0002.08,0001.78
2022-09-11 01:29:00,,0834.9,5.00,0.00,27.8,26.1,00.0,36.6,29.7,28.7,0000.0,0002.75,0002.06,0001.76
2022-09-11 01:30:00,,0834.8,5.00,0.00,27.8,26.0,00.0,36.6,29.7,28.7,0000.0,0002.79,0002.08,0001.77
2022-09-11 01:31:00,,0834.8,5.00,0.00,27.8,26.0,00.0,36.6,29.6,28.7,0000.0,0002.80,0002.09,0001.79
2022-09-11 01:32:00,,0834.8,5.00,0.00,27.8,26.0,00.0,36.6,29.6,28.8,0000.0,0002.78,0002.08,0001.78
2022-09-11 01:33:00,,0834.9,5.00,0.00,27.8,26.0,00.0,36.6,29.6,29.0,0000.0,0002.79,0002.07,0001.79
2022-09-11 01:34:00,,0834.9,5.00,0.00,27.8,26.1,00.0,36.5,29.6,28.9,0000.0,0002.89,0002.12,0001.82
2022-09-11 01:35:00,,0834.9,5.00,0.00,27.8,26.1,00.0,36.6,29.6,28.8,0000.0,0002.91,0002.15,0001.85
2022-09-11 01:36:00,,0834.9,5.00,0.00,27.8,26.1,00.0,36.6,29.6,28.8,0000.0,0002.93,0002.17,0001.88
2022-09-11 01:37:00,,0835.0,5.00,0.00,27.8,26.0,00.0,36.6,29.6,28.8,0000.0,0002.93,0002.18,0001.90
2022-09-11 01:38:00,,0835.0,5.00,0.00,27.8,26.0,00.0,36.6,29.6,28.8,0000.0,0002.93,0002.18,0001.91
2022-09-11 01:39:00,,0834.9,5.01,0.00,27.8,26.1,00.0,36.6,29.7,28.8,0000.0,0003.02,0002.21,0001.91
2022-09-11 01:40:00,,0835.0,5.00,0.00,27.8,26.1,00.0,36.6,29.7,28.7,0000.0,0003.03,0002.21,0001.91
2022-09-11 01:41:00,,0835.0,5.00,0.00,27.8,26.1,00.0,36.6,29.7,28.6,0000.0,0003.02,0002.21,0001.91
2022-09-11 01:42:00,,0835.0,5.00,0.00,27.8,26.1,00.0,36.5,29.7,28.6,0000.0,0003.05,0002.22,0001.92
2022-09-11 01:43:00,,0834.9,5.00,0.00,27.8,26.2,00.0,36.5,29.7,28.6,0000.0,0003.18,0002.30,0001.98
2022-09-11 01:44:00,,0834.9,5.00,0.00,27.8,26.2,00.0,36.5,29.7,28.6,0000.0,0003.20,0002.34,0002.04
2022-09-11 01:45:00,,0835.0,5.00,0.00,27.8,26.2,00.0,36.5,29.7,28.5,0000.0,0003.21,0002.37,0002.07
2022-09-11 01:46:00,,0835.0,5.00,0.00,27.8,26.2,00.0,36.5,29.7,28.6,0000.0,0003.20,0002.37,0002.09
2022-09-11 01:47:00,,0835.0,5.00,0.00,27.8,26.3,00.0,36.5,29.7,28.6,0000.0,0003.37,0002.44,0002.14
2022-09-11 01:48:00,,0835.0,4.99,0.00,27.8,26.2,00.0,36.5,29.7,28.5,0000.0,0003.41,0002.46,0002.16
2022-09-11 01:49:00,,0835.0,5.00,0.00,27.8,26.2,00.0,36.5,29.7,28.5,0000.0,0003.49,0002.50,0002.18
2022-09-11 01:50:00,,0835.0,5.00,0.00,27.8,26.2,00.0,36.5,29.7,28.5,0000.0,0003.47,0002.52,0002.20
2022-09-11 01:51:00,,0835.0,5.01,0.00,27.8,26.3,00.0,36.6,29.7,28.5,0000.0,0003.41,0002.51,0002.21
2022-09-11 01:52:00,,0835.0,5.00,0.00,27.8,26.2,00.0,36.5,29.7,28.5,0000.0,0003.49,0002.50,0002.20
2022-09-11 01:53:00,,0835.0,5.00,0.00,27.8,26.2,00.0,36.6,29.7,28.5,0000.0,0003.55,0002.50,0002.17
2022-09-11 01:54:00,,0835.0,5.00,0.00,27.8,26.3,00.0,36.6,29.7,28.4,0000.0,0003.41,0002.42,0002.11
2022-09-11 01:55:00,,0834.9,4.99,0.00,27.8,26.3,00.0,36.6,29.7,28.4,0000.0,0003.30,0002.34,0002.03
2022-09-11 01:56:00,,0835.0,5.00,0.00,27.8,26.2,00.0,36.6,29.7,28.5,0000.0,0003.25,0002.31,0001.98
2022-09-11 01:57:00,,0835.0,5.01,0.00,27.8,26.1,00.0,36.6,29.6,29.2,0000.0,0003.26,0002.30,0001.95
2022-09-11 01:58:00,,0835.0,5.00,0.00,27.8,26.1,00.0,36.6,29.6,29.1,0000.0,0003.15,0002.23,0001.89
2022-09-11 01:59:00,,0835.0,5.00,0.00,27.8,26.1,00.0,36.5,29.6,28.7,0000.0,0003.19,0002.22,0001.86
